This is the latest recevied weather packets stored in our database for station/object WY1B. If no packets are shown the sender has not sent any weather packets the latest 10 day(s).
| Time | Temp. | Humidity | Pressure | Rain* | Wind** | Luminosity | Snow |
|---|---|---|---|---|---|---|---|
| 1787711922 | 40° C | 16% | 1001.8 hPa | 0 mm | - | 0 W/m² | - |
| 1787711617 | 40° C | 16% | 1001.7 hPa | 0 mm | - | 0 W/m² | - |
| 1787711312 | 40° C | 17% | 1001.7 hPa | 0 mm | - | 0 W/m² | - |
| 1787711008 | 40° C | 16% | 1001.7 hPa | 0 mm | - | 0 W/m² | - |
| 1787710704 | 40.56° C | 17% | 1001.7 hPa | 0 mm | - | 0 W/m² | - |
| 1787710404 | 40.56° C | 16% | 1001.8 hPa | 0 mm | - | 1 W/m² | - |
| 1787710100 | 41.11° C | 16% | 1001.6 hPa | 0 mm | - | 2 W/m² | - |
| 1787709795 | 41.11° C | 16% | 1001.7 hPa | 0 mm | - | 3 W/m² | - |
| 1787709491 | 41.67° C | 16% | 1001.7 hPa | 0 mm | - | 5 W/m² | - |
| 1787709187 | 41.67° C | 16% | 1001.8 hPa | 0 mm | - | 8 W/m² | - |
| 1787708883 | 42.22° C | 15% | 1001.6 hPa | 0 mm | - | 11 W/m² | - |
| 1787708583 | 42.78° C | 15% | 1001.6 hPa | 0 mm | - | 14 W/m² | - |
| 1787708278 | 43.33° C | 14% | 1001.4 hPa | 0 mm | - | 18 W/m² | - |
| 1787707973 | 43.89° C | 14% | 1001.6 hPa | 0 mm | - | 22 W/m² | - |
| 1787707668 | 43.89° C | 14% | 1001.6 hPa | 0 mm | - | 24 W/m² | - |
| 1787707364 | 44.44° C | 15% | 1001.6 hPa | 0 mm | - | 36 W/m² | - |
| 1787707060 | 44.44° C | 14% | 1001.7 hPa | 0 mm | - | 35 W/m² | - |
| 1787706759 | 44.44° C | 14% | 1001.7 hPa | 0 mm | - | 44 W/m² | - |
| 1787706455 | 45° C | 14% | 1001.6 hPa | 0 mm | - | 50 W/m² | - |
| 1787706150 | 45° C | 14% | 1001.6 hPa | 0 mm | - | 43 W/m² | - |
| 1787705845 | 45° C | 13% | 1001.6 hPa | 0 mm | - | 49 W/m² | - |
| 1787705541 | 45.56° C | 14% | 1001.6 hPa | 0 mm | - | 56 W/m² | - |
| 1787705237 | 46.11° C | 14% | 1001.7 hPa | 0 mm | - | 65 W/m² | - |
| 1787704937 | 46.11° C | 14% | 1001.7 hPa | 0 mm | - | 43 W/m² | - |
| 1787704633 | 46.11° C | 14% | 1001.6 hPa | 0 mm | - | 75 W/m² | - |
* Rain latest hour (hover to see other rain measurements)
** Current wind speed in m/s (hover to see current wind gust speed)